Regional Weather Roundup
Issued by NWS Sioux Falls, SD

Home | Current Version | Previous Version | Text Only | Print | Product List | Glossary On
Versions: 1 2 3 4 5 6 7 8 9 10 11 12 13 14 15 16 17 18 19 20 21 22 23 24 25 26 27 28 29 30 31 32 33 34 35 36 37 38 39 40 41 42 43 44 45 46 47 48 49 50
863
ASUS43 KFSD 211010
RWRFSD

WEATHER ROUNDUP FOR SE SOUTH DAKOTA/SW MINNESOTA/NW IOWA
NATIONAL WEATHER SERVICE SIOUX FALLS SD
500 AM CDT MON AUG 21 2017

NOTE: "FAIR" INDICATES FEW OR NO CLOUDS BELOW 12,000 FEET WITH NO
SIGNIFICANT WEATHER AND OR OBSTRUCTIONS TO VISIBILITY.


SDZ038>040-050-052>070-211100-
SOUTHEAST SOUTH DAKOTA

CITY           SKY/WX    TMP DP  RH WIND       PRES   REMARKS
BROOKINGS      MOCLDY    63  59  87 E7        30.01S
CHAMBERLAIN    PTCLDY    62  58  86 NE7       29.97F
HURON          MOCLDY    59  57  93 N3        30.00R
MADISON        CLOUDY    61  61 100 E5        30.01S
MITCHELL       CLEAR     60  59  96 N3        29.99R
SIOUX FALLS    CLOUDY    68  65  90 E8        29.99R
WINNER         FAIR      63  61  93 E6        29.96F
YANKTON        CLOUDY    71  66  84 SE14      29.96S
$$

MNZ071-072-080-081-089-090-097-098-211100-
SOUTHWEST MINNESOTA

CITY           SKY/WX    TMP DP  RH WIND       PRES   REMARKS
FAIRMONT       CLOUDY    69  67  93 SE7       30.04R
JACKSON        CLOUDY    66  66 100 CALM      30.03R FOG
LUVERNE        MOCLDY    63  61  94 CALM      30.01R
MARSHALL       CLOUDY    61  59  93 CALM      30.02F
MONTEVIDEO     CLOUDY    57  57 100 CALM      30.03F
PIPESTONE      CLOUDY    66  61  82 E7        30.01S
REDWOOD FALLS  MOCLDY    63  59  87 N3        30.01F
TRACY          CLOUDY    63  63  99 CALM      30.02S
WINDOM         CLOUDY    66  64  94 E7        30.02S
WORTHINGTON    CLOUDY    64  64 100 E7        30.02S
$$

IAZ001>003-012>014-020>022-031-032-NEZ013-014-SDZ071-211100-
NORTHWEST IOWA

CITY           SKY/WX    TMP DP  RH WIND       PRES   REMARKS
CHEROKEE       TSTM      67  67 100 S9        29.98F
ESTHERVILLE    CLOUDY    68  68 100 SE5       30.03R
ORANGE CITY    CLOUDY    70  70 100 CALM      30.00R
SHELDON        CLOUDY    68  66  94 E7        29.98R
SIOUX CITY     CLOUDY    68  66  93 SE9       29.99R
SPENCER        CLOUDY    69  68  96 SE10      30.01R
STORM LAKE     LGT RAIN  66  66 100 SE7       30.02F
$$

ABBREVIATIONS USED IN REMARKS
   TC - TEMPERATURE IN CELSIUS
  WCI - WIND CHILL INDEX
   HX - HEAT INDEX
  VSB - VISIBILITY





USA.gov is the U.S. government's official web portal to all federal, state and local government web resources and services.